Wind_Speed
48 47 46 44 41 40 40 39 38 39 40 41 41 40 39 38 37 37 37 37 37 38 38 39 40 41 42 44 45 46 47 48 48 48 49 49 50 50 51 52 53 54 55 56 56 57 58 58 59 60 61 61 62 63 65 66 67 68 69 69 70 73 74 73 74 74 76 78 78 76 78 82 81 81 85 86 83 83 85 87 87 88 89 90 90 90 91 92
49 48 48 47 45 43 42 41 41 40 40 41 43 43 43 42 41 41 41 42 42 42 42 42 42 42 43 43 44 45 47 48 49 49 50 51 51 52 53 54 55 56 56 57 58 59 60 61 61 62 63 64 65 66 67 68 69 70 71 71 73 75 75 74 76 77 78 80 82 78 78 83 84 83 87 87 84 84 87 89 88 90 91 92 92 93 93 93
50 49 48 48 48 46 44 43 43 43 42 42 42 44 45 45 44 44 45 45 45 45 45 45 46 46 46 46 46 47 47 48 49 50 51 52 52 53 53 54 55 56 57 58 59 60 60 62 63 64 65 66 67 68 69 70 72 73 73 74 76 77 77 77 77 79 80 82 84 80 78 83 87 86 87 88 85 86 89 90 90 92 93 94 95 96 95 95
51 50 49 48 48 48 47 45 44 44 45 45 44 44 44 45 45 44 44 45 45 44 45 45 46 46 46 47 48 48 49 49 50 51 52 53 54 55 55 56 57 58 59 60 60 61 62 63 64 65 66 67 68 70 71 72 73 75 75 76 78 77 79 78 77 80 82 83 84 82 79 83 88 89 88 90 88 88 91 93 93 94 96 97 98 98 98 99
51 50 50 49 48 48 48 47 46 45 46 46 47 46 46 45 45 45 45 45 45 45 45 45 46 45 45 45 46 48 49 50 51 52 52 53 54 55 56 57 58 59 60 61 62 63 64 65 66 67 68 70 70 72 74 74 75 77 77 78 80 79 81 80 79 83 86 85 85 85 83 84 89 90 90 92 91 90 92 94 96 97 98 99 100 100 100 101
50 51 51 50 49 48 47 47 46 46 46 47 47 48 48 48 48 47 47 47 47 47 47 47 48 49 49 48 48 48 49 50 50 51 52 53 54 55 56 57 58 60 61 62 63 64 65 66 67 68 69 71 71 72 74 74 75 77 78 79 81 81 82 81 81 85 87 86 87 87 86 87 90 92 93 94 94 94 95 97 99 100 101 102 103 103 103 104
48 50 51 52 51 50 48 47 46 45 44 45 45 46 47 48 49 49 49 49 49 49 49 50 50 51 52 52 53 53 53 54 54 54 54 55 55 56 57 58 59 60 61 63 64 66 67 68 69 70 71 72 73 73 75 75 76 77 80 81 81 83 84 84 84 87 88 89 90 91 91 91 93 95 97 97 96 97 98 100 102 103 104 105 105 106 106 107
43 46 49 51 52 52 52 50 49 47 45 43 43 44 44 45 46 47 48 49 50 51 52 52 53 53 54 54 55 57 57 58 60 60 60 61 61 62 62 63 64 65 66 67 69 70 71 72 72 73 74 75 76 77 78 78 79 80 83 84 84 85 87 88 89 90 91 93 94 95 96 96 97 97 98 98 98 99 101 102 104 105 106 107 107 108 108 109
38 41 44 47 50 52 53 54 53 52 50 48 46 46 45 45 44 44 45 46 48 50 51 53 54 55 56 57 58 59 60 61 62 62 64 65 65 66 67 68 69 70 71 72 73 74 75 75 76 76 77 78 79 80 81 82 82 83 85 87 88 88 89 91 92 93 94 95 95 97 98 99 99 99 98 99 100 102 103 105 106 107 108 109 110 110 111 112
35 37 39 41 44 47 50 52 54 55 55 54 53 52 51 51 50 49 48 48 49 49 51 52 54 55 56 57 59 60 62 62 63 64 65 66 67 68 69 71 72 73 74 75 76 76 77 78 78 79 79 81 81 82 83 84 85 86 87 89 90 90 90 92 94 95 96 97 97 99 101 101 101 101 100 101 103 105 106 108 109 110 111 111 112 113 114 115
31 33 35 37 39 41 44 46 48 51 53 54 56 56 57 57 56 56 55 55 55 55 55 55 56 56 57 57 58 60 61 61 63 64 65 66 67 68 70 71 72 73 74 75 76 77 78 78 79 80 81 82 82 83 85 86 87 88 88 89 91 92 92 94 95 97 99 99 99 101 103 103 103 102 103 103 105 107 108 110 111 112 112 113 114 115 116 117
28 30 32 34 35 37 39 41 43 45 47 49 51 53 55 56 57 58 59 60 60 61 61 61 61 62 62 62 63 63 64 64 64 65 66 67 68 69 70 71 72 73 74 75 76 77 78 79 80 81 82 83 83 84 85 87 88 89 90 91 92 94 94 94 96 99 101 100 100 103 104 103 103 103 103 104 106 107 108 110 111 112 113 114 115 115 116 117
25 27 28 30 32 33 35 37 38 40 42 43 45 47 49 51 53 54 56 57 59 60 61 62 63 63 64 65 66 66 67 67 68 68 69 70 70 71 72 73 73 74 75 76 77 78 79 80 81 82 83 84 85 86 87 88 89 90 91 92 93 95 94 94 96 99 101 100 100 103 104 103 102 102 103 104 105 106 107 108 109 110 110 111 112 113 114 114
22 23 25 26 28 29 31 32 34 35 37 39 40 42 43 45 47 49 50 51 53 54 55 56 57 58 59 60 61 62 63 64 65 65 67 68 69 70 70 71 72 73 74 75 76 78 79 80 81 82 83 84 85 86 87 88 89 91 92 92 93 95 94 94 94 97 99 99 101 102 103 101 99 99 102 103 104 104 104 106 106 107 108 109 110 111 112 112
20 21 22 24 25 26 27 28 29 31 32 33 35 36 38 40 41 43 44 45 47 48 49 50 51 52 53 55 56 57 58 59 60 61 62 63 64 66 67 68 69 70 71 72 73 75 76 77 78 79 81 82 82 83 85 86 87 88 89 90 91 92 93 92 93 94 95 97 100 101 101 99 97 98 100 101 102 103 103 104 105 106 107 108 109 110 111 112
19 20 21 22 23 24 25 26 27 28 29 30 31 33 34 36 37 39 40 42 43 44 46 47 48 49 50 51 53 54 55 56 57 59 60 61 63 64 65 66 67 69 70 71 72 74 75 76 77 78 79 81 81 82 83 85 85 86 86 87 89 91 91 91 90 92 93 95 97 99 99 97 96 97 98 99 100 101 102 103 104 105 106 107 108 109 110 111
18 20 21 22 23 24 25 26 27 28 29 30 31 33 34 36 37 39 40 41 43 44 45 45 46 47 49 50 51 53 54 55 57 58 59 61 62 64 65 66 68 69 70 72 73 74 75 76 77 78 79 80 81 82 83 84 85 86 86 85 87 90 91 90 88 89 91 93 94 96 96 95 95 96 97 98 99 99 101 102 103 104 105 107 108 109 110 111
18 19 20 22 23 24 26 27 28 29 30 31 33 34 36 37 39 40 41 42 43 44 45 46 47 48 49 51 52 53 55 56 57 59 60 62 63 64 66 67 69 70 71 73 74 74 75 76 77 78 79 80 81 82 83 83 84 85 85 84 85 86 89 89 87 87 90 92 93 94 95 95 96 97 98 99 99 100 101 102 103 105 106 107 108 109 110 111
17 18 20 21 22 24 25 27 28 30 31 33 34 36 37 38 40 41 42 43 44 45 46 48 49 50 51 53 54 55 57 58 59 60 61 63 64 65 67 68 69 70 71 73 74 75 75 76 78 79 79 79 80 81 82 83 83 84 85 85 85 86 87 88 88 90 91 92 94 94 96 97 98 99 99 100 101 101 102 103 104 104 105 106 106 106 107 108
17 18 19 20 22 23 24 26 27 29 30 32 33 35 36 38 39 41 42 43 44 45 46 47 49 50 52 53 54 56 57 58 59 61 62 63 65 66 67 68 69 71 72 73 74 76 75 77 78 79 79 79 80 80 81 82 83 84 85 86 87 88 89 88 91 93 94 95 95 94 96 98 99 99 100 100 101 101 101 101 102 102 103 103 103 103 102 102
17 18 19 20 21 22 24 25 26 27 29 30 32 33 35 36 37 39 41 43 44 45 46 47 49 50 52 53 55 56 57 59 60 61 63 64 65 67 68 69 70 71 73 73 74 75 75 76 78 78 79 80 81 81 82 83 85 86 87 88 90 91 91 91 93 95 96 97 96 95 96 97 97 97 98 98 99 98 99 99 100 101 101 102 102 101 101 101
18 18 19 20 21 23 24 25 27 28 29 31 32 34 35 37 39 40 42 44 45 46 47 48 49 51 52 54 56 57 58 60 61 62 63 65 66 67 68 70 71 72 73 74 75 76 76 77 79 80 81 82 83 83 85 86 87 88 88 90 91 92 93 93 93 95 97 97 96 96 96 95 94 95 95 96 96 97 98 98 99 100 101 101 101 101 101 101
20 20 21 22 23 24 25 26 28 30 31 33 34 36 37 39 41 42 44 45 47 48 49 50 52 53 54 55 57 58 59 60 62 63 64 66 67 69 70 71 73 74 75 76 77 79 79 79 80 82 83 84 84 84 85 87 88 88 88 89 91 92 92 92 92 94 95 95 94 94 94 93 93 94 94 95 95 97 97 98 99 100 101 101 102 102 102 102
23 24 25 26 27 28 28 29 31 32 34 35 37 39 40 41 42 44 45 47 49 50 51 53 55 56 57 58 59 60 61 62 64 65 67 68 69 71 72 73 74 75 76 77 78 79 79 79 80 80 81 81 82 83 83 84 86 87 87 88 89 90 91 91 91 91 92 92 93 93 93 93 93 94 94 94 95 97 98 99 99 100 101 102 102 102 102 102
26 27 28 29 30 31 32 33 35 36 37 38 39 41 42 43 45 46 48 49 51 52 54 55 56 58 59 60 61 62 63 64 65 66 68 69 70 71 72 73 73 73 74 74 74 75 75 76 76 77 78 78 79 80 81 81 83 84 85 86 86 87 88 88 89 91 91 91 92 93 94 94 93 93 92 93 95 97 97 98 100 101 102 102 102 102 102 102
29 30 31 32 33 34 35 37 38 39 40 41 42 43 45 46 47 48 50 51 53 54 55 56 57 58 59 60 61 62 63 64 64 65 66 67 67 68 68 69 69 69 69 70 70 71 71 72 73 74 75 75 76 77 78 79 80 82 83 84 85 86 87 87 88 89 91 91 90 91 93 94 93 90 89 90 92 94 95 97 98 99 100 100 99 99 100 100
32 33 34 34 36 37 38 39 41 42 43 44 45 46 47 48 49 51 51 52 54 55 56 56 57 58 58 59 59 60 61 61 61 62 62 63 63 64 64 65 65 66 67 67 68 69 69 70 71 72 73 74 74 75 76 77 78 80 81 81 82 83 84 85 85 86 87 88 87 88 90 91 91 88 85 86 88 90 93 94 96 96 97 97 96 97 97 98
34 35 35 36 37 39 40 42 43 44 45 46 47 49 50 50 51 52 52 52 53 55 55 55 56 56 56 57 57 57 58 58 58 59 59 60 61 61 62 63 63 64 65 66 66 67 68 68 69 70 71 71 72 73 74 74 75 76 77 78 78 80 81 81 82 82 84 85 85 87 88 89 90 89 85 85 87 89 91 93 94 96 96 96 96 96 97 98
36 36 37 38 39 41 42 44 45 46 47 48 49 50 51 51 51 52 52 52 52 53 53 53 53 53 54 54 55 55 56 56 57 57 58 59 59 60 60 61 61 62 62 63 63 64 64 65 65 66 67 68 69 70 70 71 72 73 74 75 76 77 79 80 81 81 83 84 84 86 88 89 90 89 86 86 88 90 90 91 94 96 97 97 97 98 98 99
37 38 39 40 41 43 44 45 46 48 48 49 50 50 50 51 51 51 51 51 50 50 50 50 51 51 52 53 53 54 54 54 54 55 55 55 56 56 56 57 57 57 58 59 60 61 61 61 62 63 64 65 66 67 69 70 71 72 72 73 74 76 77 79 81 82 83 85 85 86 89 91 92 91 89 89 90 91 91 92 93 96 98 99 99 100 100 101
38 39 41 42 43 44 45 46 47 48 48 49 49 49 49 49 49 49 49 48 48 49 49 49 49 50 50 50 50 50 50 50 50 50 50 51 51 52 52 53 53 53 54 54 56 58 59 60 61 63 63 65 66 67 69 70 72 73 74 74 76 77 79 81 83 84 85 86 88 89 91 94 95 95 95 94 94 94 94 95 96 98 99 101 102 103 104 104
39 40 41 43 44 45 46 47 47 47 47 48 47 47 47 47 47 47 47 47 46 46 46 46 46 45 45 45 45 45 45 46 46 47 47 48 49 50 51 52 53 54 55 55 56 58 60 61 63 64 66 67 68 70 71 72 74 75 76 77 77 79 80 82 84 85 86 88 89 91 92 93 94 96 97 98 97 97 96 96 97 98 100 101 103 104 105 106
40 41 42 44 45 45 45 46 46 46 46 45 45 45 44 44 45 44 44 44 43 42 42 42 42 42 42 42 42 43 43 43 44 45 46 47 48 49 50 52 53 55 57 59 60 60 62 63 65 66 67 69 70 71 72 74 75 76 77 78 78 79 79 81 83 84 85 86 88 90 91 91 92 93 95 96 96 96 96 95 95 96 97 98 100 101 103 104
41 42 43 44 44 44 44 44 44 44 43 43 43 43 42 41 41 40 40 40 39 39 39 39 39 40 40 40 40 41 42 43 44 44 46 47 49 50 51 52 53 55 56 58 60 61 62 63 64 65 66 68 68 69 70 71 72 73 74 75 75 76 76 77 78 79 80 80 82 85 86 87 88 88 90 92 93 93 93 93 94 94 94 95 96 97 98 99
42 42 42 43 43 43 42 42 41 41 41 40 40 39 38 38 37 37 37 37 37 37 37 37 37 38 38 39 39 40 42 43 45 46 46 48 49 50 51 52 53 54 55 55 56 58 58 59 61 61 62 63 64 65 66 66 67 68 68 69 70 71 71 72 74 75 75 75 76 78 79 81 82 83 84 86 87 88 89 90 90 91 91 92 93 94 95 96
41 41 42 42 41 41 40 39 39 39 38 37 36 36 36 36 36 36 36 36 36 35 35 35 36 36 37 38 39 40 41 42 44 45 46 46 47 48 48 49 50 50 51 51 52 53 53 54 55 56 57 58 59 59 60 61 62 63 63 64 65 67 67 68 69 71 71 72 73 74 75 76 77 78 80 81 82 83 85 86 87 88 88 90 90 91 92 93
40 41 40 40 39 38 38 37 36 35 35 35 35 35 35 34 34 34 34 34 34 34 34 34 34 35 36 37 38 39 40 40 41 42 43 44 44 45 45 46 46 47 48 48 49 49 50 50 51 52 52 53 54 55 56 57 58 58 59 60 61 62 63 64 64 65 65 66 68 71 72 71 71 72 73 75 77 77 79 81 82 84 85 86 88 89 89 91
39 38 37 37 36 35 35 34 33 33 33 34 33 33 33 33 32 32 32 32 32 32 33 33 34 34 35 36 37 37 38 39 40 41 42 43 44 44 44 45 45 46 46 46 47 47 48 48 49 49 49 50 50 51 52 53 54 54 55 55 56 57 59 61 62 61 61 62 63 67 70 69 69 69 70 71 72 72 72 73 75 77 79 80 81 84 85 86
36 35 34 34 33 32 32 32 33 32 32 32 31 31 31 31 31 31 31 31 31 31 32 32 33 34 35 36 37 38 39 41 42 43 44 45 45 45 46 46 46 46 46 46 45 45 45 45 46 47 47 48 48 48 49 50 52 53 55 56 57 59 61 63 65 66 66 66 66 68 71 72 72 72 73 73 73 73 72 72 72 73 74 75 76 77 79 81
33 32 31 31 31 31 32 31 31 30 30 30 30 30 30 30 30 29 29 29 29 30 31 31 33 34 36 37 39 40 42 44 45 46 47 47 48 48 48 47 47 47 47 46 46 46 46 47 47 47 48 49 50 51 51 52 53 54 55 56 58 59 62 64 66 68 69 69 69 69 70 71 72 73 74 74 73 74 74 74 74 74 74 74 74 75 76 77
30 30 30 30 31 31 30 30 30 30 30 31 30 30 29 28 28 27 28 28 28 29 31 32 34 35 37 39 41 43 45 46 47 48 48 48 48 49 48 48 48 48 48 48 48 48 47 47 48 49 49 50 51 52 53 54 55 55 55 55 55 56 59 62 63 65 66 67 68 69 68 68 69 70 71 71 71 71 72 72 72 72 73 73 73 74 75 76
28 29 29 30 29 29 29 30 30 30 30 29 29 28 27 26 26 26 27 28 29 30 32 34 35 37 39 41 42 44 45 46 47 47 48 48 48 48 48 48 48 47 47 47 47 47 46 46 46 46 47 47 47 48 49 51 52 54 54 55 55 55 56 59 61 61 62 63 63 64 65 64 64 66 67 68 68 68 69 69 69 69 70 70 70 71 71 73
28 28 28 28 28 29 30 30 30 29 28 27 26 25 25 25 26 27 28 29 30 31 33 35 37 39 41 42 43 44 45 46 47 47 48 48 48 48 48 47 47 46 46 46 45 45 45 44 43 43 43 43 44 44 45 46 47 49 51 51 52 52 53 55 57 58 58 59 58 59 61 61 59 60 61 62 63 64 66 67 67 67 67 68 68 69 69 70
27 27 27 27 28 29 29 28 28 27 26 25 24 24 25 26 27 28 29 30 31 33 35 37 39 41 42 42 43 44 45 46 47 48 48 49 48 48 47 47 46 46 45 45 44 44 43 43 42 42 42 42 43 43 43 44 44 46 47 48 48 48 49 51 54 55 55 57 57 57 59 61 60 59 58 58 59 60 61 63 64 64 65 65 66 67 67 68
26 26 27 27 28 27 27 26 26 25 25 24 24 24 26 27 28 29 30 31 33 35 37 38 40 41 41 42 43 44 45 47 48 48 49 48 48 48 48 47 47 47 46 46 46 45 45 45 44 44 43 43 43 43 44 44 45 47 48 49 49 48 48 51 54 55 55 57 58 58 58 61 63 62 62 61 60 59 59 59 60 61 62 63 64 64 65 65
25 26 26 26 26 26 25 25 25 24 24 24 25 26 28 29 29 31 32 33 35 36 37 38 39 40 41 41 42 44 46 47 48 48 49 49 49 49 49 49 48 48 48 48 48 48 47 47 47 47 46 46 46 47 47 48 48 50 52 53 53 53 51 52 55 57 56 56 58 59 59 61 63 64 65 65 65 65 64 63 62 62 62 63 64 64 65 65
25 25 25 25 24 24 24 24 24 25 25 25 27 28 30 31 31 33 34 35 36 36 37 38 39 39 40 41 43 44 46 47 48 49 49 49 49 49 49 50 50 50 50 50 50 50 49 49 49 49 49 49 49 50 51 52 52 53 55 57 58 57 56 55 56 58 58 58 58 59 61 62 63 64 64 65 65 66 66 66 64 64 64 64 64 65 65 66
23 23 23 23 23 24 24 24 25 26 26 28 30 31 32 33 34 34 34 35 35 36 37 38 38 39 40 41 43 45 47 48 49 50 50 50 50 50 50 50 51 51 51 51 52 52 52 51 51 52 53 53 53 53 54 55 56 56 58 59 61 61 59 57 57 58 60 60 59 58 59 61 62 63 64 64 64 64 65 65 64 64 64 65 65 65 65 66
22 22 22 23 24 24 25 26 27 28 29 31 32 33 33 34 34 34 34 34 35 36 37 38 38 39 41 42 44 46 47 49 50 50 51 51 51 51 51 51 52 53 53 53 54 54 54 55 54 54 55 56 57 57 56 57 57 58 60 61 62 63 62 59 59 60 60 60 60 59 58 59 61 63 64 64 64 64 65 66 65 65 65 65 65 65 65 65
22 22 23 23 25 25 26 28 29 30 32 33 34 34 35 35 34 34 33 34 35 36 37 38 39 40 42 43 45 47 49 50 51 51 52 52 52 52 53 53 54 55 55 56 57 57 57 58 58 57 57 57 58 58 59 59 59 60 61 62 63 64 64 62 61 60 60 60 61 61 60 60 61 63 65 65 64 65 66 65 65 65 65 65 65 65 65 65
22 22 23 25 26 27 28 29 30 32 34 35 35 36 35 34 33 33 33 34 35 36 37 38 39 41 43 45 47 48 50 51 51 52 53 53 54 55 56 56 57 58 59 59 60 60 61 61 62 62 62 61 60 60 60 60 61 61 62 62 63 65 67 66 63 62 61 60 60 61 62 62 62 63 65 66 65 65 66 65 65 65 65 64 64 64 64 64
22 23 24 25 26 28 29 30 32 34 35 36 36 36 34 33 32 33 33 35 36 37 38 39 40 42 44 45 47 49 50 51 52 53 54 55 56 57 58 60 61 62 62 63 63 64 64 64 64 65 66 66 65 65 65 64 64 64 63 64 65 66 69 69 66 65 65 63 62 63 64 65 65 65 66 68 68 67 67 67 65 65 65 64 64 64 63 64
Wind_Direction
233 233 235 237 239 242 244 246 245 243 243 244 245 246 246 246 246 247 248 248 249 250 250 251 252 252 252 252 252 252 253 253 254 254 254 254 254 254 254 254 255 254 254 254 254 254 254 255 255 255 255 255 256 256 257 258 259 260 260 261 261 262 262 263 264 264 264 265 264 264 265 266 266 267 267 267 267 268 269 268 269 269 269 269 269 269 269 269
236 236 237 238 240 242 244 246 247 247 247 246 246 247 249 250 251 252 253 253 252 252 252 253 254 255 255 255 255 255 255 256 257 257 258 258 258 258 257 257 258 258 258 258 258 258 258 259 259 259 259 260 260 260 260 261 261 261 262 262 262 263 263 264 265 265 265 266 265 265 266 268 267 267 267 268 268 269 269 269 269 269 269 269 270 270 269 270
238 239 239 240 241 243 244 246 247 248 249 249 249 249 251 254 256 257 258 258 257 257 257 257 257 257 258 257 257 257 257 258 258 259 259 260 260 260 260 260 260 260 260 260 261 261 261 261 262 263 263 263 263 263 263 264 264 264 264 264 264 264 265 265 266 267 266 266 266 266 266 267 268 267 267 268 268 268 269 269 269 269 270 270 270 270 270 270
237 240 241 242 243 244 245 246 247 247 248 250 251 251 253 255 256 258 259 259 260 259 259 260 260 261 261 261 261 260 259 259 259 259 259 260 260 260 260 261 261 261 262 262 262 262 262 263 264 264 265 265 265 266 266 266 266 266 266 266 266 266 266 266 267 267 266 266 267 267 267 267 268 268 268 268 268 268 268 269 270 270 270 270 270 270 270 270
237 239 242 243 244 246 247 247 247 248 248 249 250 251 253 255 256 256 257 258 259 258 258 258 258 258 258 260 262 264 264 264 263 263 263 263 262 262 262 262 262 262 262 262 262 263 263 263 264 264 264 264 264 265 265 265 265 266 266 266 266 266 266 266 266 266 266 266 267 267 266 266 267 268 268 268 268 268 269 270 270 270 270 270 270 270 270 270
238 239 241 242 244 245 247 248 249 250 250 250 250 251 252 253 254 255 256 257 258 258 258 257 257 256 256 255 257 259 262 264 265 265 265 266 266 267 267 267 266 266 266 265 265 265 265 265 266 266 266 265 265 265 265 265 265 266 266 266 266 267 266 267 267 267 267 267 267 267 267 266 268 269 269 270 270 271 271 271 271 272 272 272 272 272 272 272
241 241 242 243 244 245 246 247 249 249 250 250 251 251 252 253 254 255 256 257 257 258 258 258 258 258 257 257 256 256 257 258 260 260 260 261 262 264 264 265 266 267 267 267 267 267 267 267 267 267 267 267 267 266 266 266 266 267 267 267 267 268 268 268 267 267 268 268 268 268 268 268 268 269 270 270 271 271 271 271 271 271 271 272 272 272 272 273
243 244 244 245 246 246 247 247 248 248 247 247 248 248 249 251 253 255 256 257 258 258 258 259 259 260 260 260 259 259 259 259 260 260 260 260 261 261 262 263 263 264 265 265 266 267 267 267 267 267 267 267 267 267 267 267 267 267 267 267 267 268 268 269 268 268 268 269 269 269 269 269 269 269 270 271 271 271 271 271 271 271 271 271 272 272 272 272
246 246 247 247 248 248 249 249 249 249 248 247 246 246 247 248 249 251 253 254 256 257 258 258 259 259 260 261 261 261 262 261 262 262 262 263 263 263 263 264 264 265 266 266 266 267 267 268 268 268 268 268 268 268 268 268 268 268 268 269 268 268 269 269 269 270 269 269 270 270 270 270 270 271 271 272 272 272 272 272 272 272 272 272 272 273 273 273
249 249 249 250 250 251 251 252 252 252 252 251 250 250 250 250 251 251 252 253 253 254 255 256 257 258 259 259 260 261 262 262 263 263 264 264 265 265 265 265 266 266 267 267 267 268 268 268 269 269 269 269 269 269 269 269 269 269 269 269 270 270 269 270 270 270 270 270 270 270 270 270 271 271 271 271 271 271 271 271 271 272 272 272 272 273 272 272
252 253 253 253 253 253 254 254 255 255 255 255 255 255 255 255 256 256 256 256 257 257 257 257 258 259 260 260 260 260 261 261 262 262 263 263 263 264 264 265 266 266 267 267 267 267 268 268 268 268 268 268 268 268 268 268 268 268 268 268 268 269 269 269 269 269 269 269 269 269 269 270 270 270 270 270 270 270 271 271 271 272 272 273 273 273 273 273
255 256 256 256 256 256 256 257 257 258 258 258 258 259 259 259 260 260 260 261 261 261 261 261 262 262 263 264 264 264 264 264 264 264 264 264 264 264 264 264 265 265 266 266 267 267 267 267 267 267 267 267 267 267 267 268 267 267 267 267 267 267 268 268 269 269 269 269 269 269 269 270 270 271 271 271 271 271 272 272 273 273 273 274 274 274 274 274
256 257 257 258 258 258 258 258 259 259 259 260 260 260 261 261 261 261 262 263 263 264 264 265 265 266 266 267 267 267 267 267 268 268 268 268 268 267 267 267 267 267 267 267 268 268 268 268 268 268 268 268 268 268 268 269 269 269 269 269 269 269 269 270 270 271 271 271 271 271 271 272 272 273 273 273 272 273 273 273 274 274 274 275 275 275 275 275
257 257 258 258 258 258 258 258 259 259 259 260 260 261 261 262 262 263 263 264 265 265 265 266 266 267 267 267 268 268 268 268 269 269 269 269 269 269 269 269 269 269 269 269 269 269 269 269 269 269 269 270 270 270 270 270 271 271 271 271 272 272 272 271 272 273 274 274 274 273 273 273 274 274 274 274 274 275 275 275 275 275 275 276 276 276 276 276
259 260 260 259 259 259 258 259 259 260 260 261 261 262 263 264 264 265 266 266 266 266 267 267 268 268 268 269 269 269 269 269 269 269 269 269 269 269 269 269 269 269 269 269 269 269 269 270 270 270 270 271 271 271 271 271 271 272 273 273 273 273 273 273 273 274 275 275 275 275 275 275 276 275 275 276 276 276 276 276 276 276 276 276 276 276 276 276
268 268 267 267 267 266 266 265 265 265 266 266 267 267 268 268 269 270 270 270 270 270 270 270 270 270 271 270 270 270 270 270 270 270 270 270 270 270 270 269 269 269 269 269 269 270 270 270 271 271 272 272 272 273 273 273 273 274 274 275 276 276 276 275 276 276 276 276 277 277 277 278 277 277 276 276 276 276 276 276 276 276 276 276 276 276 276 276
276 276 275 275 274 274 273 273 272 271 271 271 271 272 273 274 274 275 275 275 275 275 275 274 273 273 273 272 272 272 271 271 271 271 271 271 271 271 271 271 271 271 271 272 272 272 273 273 273 274 274 275 275 275 276 276 277 277 277 277 277 278 278 278 278 278 278 277 277 278 278 279 278 278 277 277 277 276 276 276 276 276 276 276 276 276 276 276
280 280 279 278 277 276 276 275 274 273 273 273 273 274 275 276 277 277 278 278 278 277 277 276 276 275 275 275 274 274 274 273 273 273 274 274 274 274 274 274 274 274 275 275 275 275 276 276 276 276 276 277 277 278 278 278 278 279 279 279 278 278 279 280 280 279 279 279 279 279 280 279 279 278 278 278 278 277 277 277 277 277 276 276 276 276 276 276
284 283 282 281 280 279 278 277 276 276 275 275 275 275 276 276 277 278 277 277 278 277 277 277 277 276 276 276 276 276 276 276 276 276 276 276 276 276 276 276 276 276 276 277 277 277 278 278 278 278 278 279 279 279 280 280 280 280 280 280 280 279 279 280 280 280 279 279 279 279 280 280 279 279 279 279 278 278 278 277 277 277 277 277 276 276 276 276
288 286 285 284 284 282 281 280 279 278 277 276 276 276 276 276 276 277 276 276 276 276 277 277 277 277 277 276 276 276 276 276 276 276 276 276 276 277 277 277 278 278 278 278 278 279 279 279 279 280 280 280 280 281 281 281 281 281 281 281 281 280 280 280 280 280 280 279 279 279 278 279 279 279 279 278 278 278 278 278 277 277 277 277 277 277 277 277
290 289 289 288 287 285 283 282 281 280 279 278 277 277 276 276 276 276 276 276 276 277 277 277 277 277 277 277 276 276 277 277 277 277 277 278 278 278 279 279 279 279 279 280 280 280 280 280 281 281 281 281 282 282 282 281 281 281 281 281 281 280 281 280 280 280 280 280 279 279 278 278 278 278 278 278 278 278 277 277 277 277 277 277 277 277 277 277
294 294 295 294 293 291 288 285 283 282 281 280 280 279 278 278 277 277 277 277 278 278 278 278 278 277 277 277 277 278 278 278 279 279 279 280 280 280 280 280 280 280 281 281 281 281 281 281 281 282 282 282 282 282 281 281 280 280 280 280 280 280 280 280 280 279 279 279 279 279 278 278 278 278 277 277 277 277 277 277 277 277 277 277 277 276 276 276
298 298 297 297 296 293 290 287 285 283 282 282 281 280 279 279 279 279 279 279 279 280 280 279 279 279 279 279 280 280 280 280 280 280 281 280 280 280 280 281 281 281 281 281 281 281 281 281 280 281 281 281 281 281 280 280 280 280 279 279 279 279 279 279 279 278 278 279 279 278 278 278 278 277 277 277 277 277 277 277 277 277 276 276 276 276 276 276
297 296 295 294 294 292 290 288 286 285 284 283 282 282 281 281 281 281 281 281 281 281 281 281 281 282 282 282 282 282 281 281 281 281 281 281 281 281 281 281 281 281 281 281 281 281 281 280 280 279 279 279 279 279 279 279 279 280 279 279 279 279 280 280 279 279 279 279 279 279 279 278 278 278 278 278 278 278 278 277 277 277 276 276 276 276 276 276
297 296 295 294 292 291 290 289 289 288 286 285 285 284 284 283 283 283 283 283 284 284 283 284 284 284 284 283 283 283 282 282 282 281 282 282 281 281 281 281 281 281 281 281 281 281 281 281 280 280 280 279 279 279 279 279 279 279 280 280 280 280 280 280 280 280 280 279 279 280 279 278 278 278 279 279 279 279 279 278 278 277 277 277 277 277 277 277
296 294 293 293 292 291 291 291 290 289 289 288 288 287 286 286 286 286 286 287 287 287 286 286 286 286 286 286 285 285 284 284 284 283 283 283 283 283 283 283 283 283 283 282 282 282 281 281 281 281 281 280 280 280 280 280 280 280 280 281 281 281 281 280 280 281 280 280 280 280 279 279 278 278 278 279 279 279 279 278 277 277 277 277 278 278 277 277
293 292 292 292 292 293 293 293 292 291 291 290 290 290 290 290 290 290 291 291 290 290 290 290 290 290 289 289 288 288 288 287 287 286 286 286 286 286 286 285 285 285 284 284 284 283 283 283 283 283 282 282 282 282 281 281 281 281 281 281 281 281 281 281 281 281 281 281 280 280 280 280 279 278 278 278 278 278 278 278 278 278 278 278 278 278 278 278
290 291 293 293 293 293 293 293 293 293 293 293 293 294 294 294 295 294 294 294 293 293 293 293 293 292 292 292 291 291 290 290 290 289 289 289 288 288 288 287 287 287 286 286 286 286 285 285 285 285 284 284 284 284 283 283 283 283 283 283 282 282 282 282 282 282 282 282 282 282 281 281 280 280 279 279 278 277 277 278 279 279 279 279 279 279 278 278
292 294 295 294 294 294 294 294 295 295 295 296 297 297 298 298 298 297 297 296 296 296 296 295 295 295 294 294 293 293 293 293 292 292 291 291 291 290 290 290 290 290 289 289 289 289 288 288 288 287 287 287 286 286 285 285 284 284 284 284 284 284 284 284 283 283 283 283 283 283 283 282 281 281 281 280 279 278 278 279 279 279 279 279 279 279 279 278
294 294 294 294 294 295 296 296 297 297 298 299 300 300 300 300 300 300 299 299 299 298 298 298 297 297 296 296 295 295 295 295 295 295 295 295 295 294 294 294 294 294 294 294 293 292 291 291 290 289 288 287 287 286 286 285 285 284 284 284 284 284 284 284 284 284 284 284 284 284 283 283 283 283 282 281 280 280 279 279 279 279 279 280 279 279 279 279
292 293 294 295 296 297 298 299 299 300 301 302 302 302 302 302 302 302 301 301 301 301 300 300 299 299 298 298 298 298 299 299 299 299 299 299 299 298 298 297 296 294 293 292 292 292 291 290 289 288 288 287 287 286 286 285 285 285 285 284 284 284 284 284 284 284 284 284 284 284 283 284 284 285 284 283 282 281 281 280 279 279 279 279 279 279 279 279
292 293 295 296 298 299 301 301 302 303 304 305 305 305 305 304 304 304 304 304 303 303 303 302 302 302 302 303 303 303 304 304 303 303 303 302 302 301 300 300 299 298 297 295 294 293 292 292 291 290 290 289 289 288 288 287 287 286 286 286 285 285 285 285 285 285 285 285 284 284 283 284 284 284 284 284 283 282 281 281 280 279 279 278 278 278 278 278
294 295 297 299 301 302 303 305 306 306 307 307 307 307 306 306 306 306 305 306 306 306 306 307 307 307 308 308 308 308 308 307 307 306 306 305 304 303 302 301 300 299 298 297 296 295 294 293 292 292 291 291 290 290 289 289 289 288 288 287 287 287 286 286 286 286 286 286 286 286 286 285 285 285 285 285 285 285 284 283 282 281 280 279 279 279 278 278
296 298 300 302 304 305 307 308 308 309 309 309 308 308 308 308 308 309 309 309 310 311 311 312 312 312 312 312 312 312 312 311 310 309 308 307 306 304 303 302 300 299 298 297 297 296 295 294 294 293 292 292 292 291 290 290 290 290 290 290 289 289 288 288 287 286 286 286 286 286 287 287 287 286 286 286 286 286 286 285 285 284 283 282 281 280 280 279
299 302 304 306 308 309 310 311 311 311 311 311 311 312 312 312 313 313 313 314 314 315 315 316 316 316 317 316 316 316 315 315 314 313 311 310 309 307 306 305 303 302 301 299 298 297 297 296 295 295 294 294 293 293 293 292 292 292 291 292 291 291 291 290 289 289 289 288 288 288 288 288 288 288 287 287 287 287 287 287 286 285 285 284 283 282 282 281
304 306 309 310 311 312 313 313 313 313 314 315 315 316 316 317 317 317 317 317 318 319 319 320 320 320 320 320 319 319 318 318 317 316 315 313 312 311 309 308 307 306 305 304 303 301 300 300 299 298 297 297 296 296 296 295 295 295 295 295 295 295 294 293 293 294 294 294 293 292 291 291 290 290 290 289 289 289 288 288 287 287 286 286 285 284 283 283
309 311 312 313 313 314 315 316 317 318 318 319 320 320 320 320 320 320 321 321 322 323 323 323 324 324 324 324 323 323 323 322 321 320 319 319 318 317 316 315 314 313 311 310 309 308 307 306 305 304 303 302 302 301 301 300 299 299 299 299 298 297 296 295 295 295 295 295 295 295 294 293 292 291 290 290 289 288 288 288 288 287 287 286 286 285 285 284
312 313 314 315 316 317 319 320 321 322 322 322 322 322 323 323 324 324 325 325 326 326 327 328 328 328 328 328 328 328 328 328 328 328 327 326 326 325 324 322 321 320 319 317 316 315 313 312 310 309 308 306 305 304 304 303 303 302 301 301 301 301 301 301 301 300 300 300 301 301 301 300 299 298 297 295 294 293 292 290 289 288 287 287 286 286 286 285
313 315 317 318 320 322 324 325 325 325 324 325 325 326 327 327 328 329 329 330 331 331 332 332 333 333 334 334 335 335 335 335 335 335 334 333 332 331 330 329 328 326 324 322 321 319 317 316 315 314 313 312 311 310 310 310 310 310 310 310 310 310 310 310 310 309 308 308 308 307 306 306 306 305 303 302 302 301 300 298 296 294 292 291 290 289 288 287
318 319 321 323 326 327 327 327 327 328 329 330 331 331 331 332 332 333 334 334 335 336 336 337 338 339 339 340 340 340 341 341 340 339 339 338 337 336 334 333 332 330 329 327 326 325 324 323 322 321 320 320 320 319 318 318 318 317 316 315 314 313 313 312 311 309 309 309 308 307 306 306 306 305 304 304 304 303 302 301 300 299 297 296 294 293 292 290
323 325 328 330 330 330 330 331 332 334 334 335 335 335 335 336 337 337 338 339 340 340 341 342 343 343 343 343 344 345 345 345 344 342 341 340 339 338 337 336 335 334 333 332 331 330 329 328 327 326 326 325 324 323 322 321 319 318 316 314 313 312 310 309 308 308 308 308 308 307 307 307 306 305 304 304 304 303 302 301 300 299 298 297 296 295 294 293
329 331 332 332 331 332 335 336 337 337 337 337 337 338 338 340 341 342 343 344 344 345 346 346 346 346 346 347 348 348 347 346 345 344 343 342 341 340 339 338 337 336 335 335 333 332 332 331 330 329 327 326 324 322 321 320 319 318 316 315 313 312 310 309 308 308 308 309 309 309 308 307 307 306 305 305 305 304 304 302 301 300 299 298 297 296 295 294
334 334 333 334 336 338 339 339 339 339 339 339 340 341 343 345 346 347 347 347 348 348 348 349 349 349 349 350 350 349 348 347 346 346 345 344 343 342 341 341 340 339 338 337 336 335 334 333 331 330 328 326 325 323 322 320 319 317 315 313 312 313 313 312 311 310 311 310 310 310 308 308 308 309 309 309 308 308 307 306 305 304 303 302 301 299 298 297
335 335 337 340 341 341 340 340 341 341 342 342 343 345 348 349 350 350 350 350 350 350 350 351 351 351 351 350 350 349 348 348 348 348 347 346 345 344 344 343 343 342 342 340 339 337 336 335 333 333 332 331 329 327 326 323 321 319 317 316 317 318 318 316 315 316 317 316 315 316 317 316 315 315 315 314 313 312 311 310 308 307 306 305 303 302 301 300
337 340 342 343 342 341 341 343 344 344 345 346 347 350 352 353 352 352 352 352 352 352 352 352 352 352 351 350 350 349 349 349 349 349 348 348 347 347 347 346 346 346 345 344 343 342 341 340 339 338 337 335 333 332 331 329 328 327 326 326 326 327 327 326 325 325 326 326 325 325 326 325 323 321 320 320 319 318 315 312 311 310 308 307 305 304 303 302
342 344 344 343 342 343 345 346 347 349 350 350 352 355 356 355 354 353 354 353 353 353 353 352 352 352 351 351 350 350 350 351 351 350 350 350 350 350 350 350 350 350 349 349 348 348 347 346 345 344 343 341 340 339 338 338 337 336 335 335 335 335 336 336 334 332 333 334 333 332 332 331 330 329 328 327 326 324 322 320 319 317 315 312 311 309 308 307
345 344 343 343 344 347 348 350 353 354 354 355 357 359 358 356 355 355 354 354 354 354 353 353 352 352 352 352 352 352 352 352 353 353 353 353 354 354 354 354 354 353 353 353 352 352 352 351 350 349 349 348 347 346 345 344 344 343 342 341 340 340 341 341 340 337 337 338 339 338 337 336 335 334 333 331 330 329 326 325 324 321 319 317 315 314 312 311
344 344 343 345 348 351 352 355 358 358 357 359 1 360 358 356 355 355 354 354 355 354 354 354 354 353 353 353 353 354 354 355 355 356 356 357 357 358 358 358 358 358 357 357 357 357 357 356 355 355 354 354 352 352 351 349 348 347 346 345 344 344 343 344 343 342 341 341 341 341 340 339 338 337 336 334 333 331 328 327 325 323 322 320 318 317 315 313
343 344 346 349 353 355 356 359 1 0 1 3 2 360 358 356 355 355 355 356 356 356 355 355 355 354 354 355 356 356 357 358 359 360 1 1 2 2 2 2 2 2 2 2 1 0 0 360 359 358 358 357 356 355 354 353 351 350 349 348 347 345 344 345 346 346 344 343 342 342 342 342 340 339 338 336 335 334 331 330 329 327 325 323 321 319 317 316
345 347 349 354 357 358 0 3 3 3 4 4 1 359 357 356 356 357 358 358 358 358 357 357 357 356 357 358 359 360 1 2 3 5 6 6 7 7 7 6 6 6 6 5 4 4 3 3 2 1 1 0 359 357 356 355 353 352 351 350 348 346 345 346 348 348 346 345 344 343 344 344 343 342 340 339 338 337 335 333 331 329 327 325 323 322 320 318
347 349 353 358 360 0 3 4 4 5 5 3 360 358 357 357 359 0 1 1 0 360 359 359 359 359 359 0 2 3 4 6 7 9 10 11 11 11 11 11 11 10 9 9 8 6 6 6 5 3 2 2 1 359 358 357 355 354 353 351 350 349 347 347 349 349 347 346 346 345 345 345 345 345 343 341 341 340 337 335 334 331 329 327 326 324 322 320
348 352 357 360 0 2 4 5 5 5 3 1 359 358 359 1 3 3 3 2 2 2 1 1 0 1 1 3 4 5 7 8 10 11 12 13 14 14 14 14 14 13 13 12 11 10 8 8 7 6 4 3 2 1 360 359 358 357 355 354 353 353 350 347 349 350 348 347 348 347 347 347 347 347 346 344 343 343 340 337 336 334 332 330 328 327 325 323
Height
10722 10723 10724 10725 10726 10726 10727 10729 10730 10731 10732 10732 10732 10732 10733 10734 10735 10735 10735 10735 10736 10736 10735 10735 10736 10736 10736 10737 10737 10737 10737 10737 10737 10737 10737 10737 10737 10736 10736 10735 10734 10734 10734 10734 10733 10733 10732 10731 10731 10730 10730 10729 10729 10729 10726 10725 10726 10724 10724 10724 10723 10719 10718 10720 10720 10720 10717 10714 10715 10720 10716 10707 10712 10710 10700 10700 10706 10709 10703 10698 10698 10695 10693 10690 10691 10692 10691 10690
10719 10721 10722 10723 10723 10724 10725 10726 10727 10728 10729 10730 10730 10730 10730 10731 10732 10732 10732 10732 10732 10732 10732 10732 10732 10732 10733 10733 10733 10734 10734 10733 10733 10733 10733 10732 10732 10732 10731 10731 10730 10729 10729 10728 10728 10728 10727 10726 10725 10725 10724 10724 10723 10723 10721 10720 10719 10717 10718 10718 10714 10711 10713 10715 10713 10710 10710 10706 10703 10712 10712 10699 10700 10702 10693 10692 10700 10700 10692 10689 10691 10686 10683 10682 10681 10681 10681 10681
10717 10718 10720 10721 10721 10722 10723 10724 10724 10725 10726 10727 10727 10727 10727 10728 10728 10728 10728 10728 10728 10728 10728 10728 10729 10729 10729 10729 10729 10729 10729 10729 10729 10729 10728 10728 10727 10727 10727 10726 10725 10725 10724 10723 10723 10722 10721 10720 10719 10719 10718 10717 10716 10715 10714 10714 10712 10711 10712 10710 10705 10706 10705 10707 10707 10702 10700 10696 10692 10701 10707 10695 10687 10690 10686 10685 10692 10691 10682 10681 10682 10677 10675 10673 10670 10669 10671 10672
10715 10716 10717 10718 10719 10719 10720 10721 10722 10722 10723 10723 10723 10724 10724 10724 10725 10725 10725 10724 10724 10724 10724 10724 10724 10724 10724 10724 10724 10724 10724 10724 10724 10724 10723 10723 10722 10722 10721 10721 10720 10719 10719 10718 10717 10716 10715 10714 10713 10713 10711 10711 10710 10708 10707 10707 10705 10703 10704 10700 10697 10700 10696 10697 10702 10693 10689 10688 10685 10690 10697 10690 10677 10678 10679 10676 10681 10682 10675 10672 10672 10669 10665 10662 10660 10660 10661 10660
10713 10714 10715 10715 10716 10716 10717 10718 10719 10719 10719 10720 10720 10720 10721 10721 10721 10721 10721 10721 10720 10720 10720 10720 10719 10719 10719 10719 10719 10719 10719 10718 10718 10718 10717 10717 10717 10716 10715 10715 10714 10713 10713 10712 10711 10710 10709 10708 10707 10706 10705 10704 10704 10702 10699 10700 10699 10695 10696 10692 10689 10692 10688 10690 10693 10682 10678 10681 10678 10680 10686 10681 10670 10669 10670 10667 10669 10672 10669 10664 10661 10658 10654 10651 10649 10649 10649 10647
10710 10711 10712 10712 10713 10713 10714 10714 10715 10715 10716 10716 10716 10717 10717 10717 10717 10717 10717 10717 10717 10716 10716 10716 10715 10715 10715 10715 10715 10714 10714 10713 10712 10712 10712 10711 10710 10710 10709 10708 10707 10707 10706 10705 10704 10703 10702 10701 10700 10699 10698 10696 10696 10695 10692 10692 10692 10688 10687 10684 10681 10682 10679 10682 10683 10672 10670 10672 10670 10670 10672 10671 10664 10661 10658 10657 10660 10661 10659 10655 10650 10646 10642 10640 10638 10638 10636 10634
10707 10708 10708 10709 10710 10710 10711 10711 10711 10712 10712 10712 10713 10713 10713 10713 10713 10713 10713 10713 10712 10712 10712 10711 10711 10710 10710 10710 10710 10709 10709 10708 10707 10707 10707 10706 10704 10703 10703 10701 10701 10700 10699 10698 10697 10696 10694 10693 10692 10691 10690 10689 10688 10687 10684 10683 10684 10681 10677 10675 10675 10673 10670 10673 10671 10665 10663 10662 10661 10659 10658 10660 10657 10652 10649 10649 10651 10649 10647 10643 10639 10634 10630 10628 10627 10626 10624 10621
10703 10704 10705 10705 10706 10707 10707 10708 10708 10709 10709 10709 10709 10709 10709 10709 10709 10708 10708 10708 10708 10707 10707 10707 10706 10705 10705 10705 10705 10704 10704 10703 10702 10702 10701 10700 10699 10698 10697 10695 10694 10693 10692 10691 10689 10688 10687 10685 10684 10683 10682 10680 10679 10678 10676 10675 10675 10673 10667 10665 10667 10665 10661 10661 10658 10657 10655 10652 10651 10648 10646 10647 10645 10643 10642 10641 10640 10637 10634 10629 10626 10623 10619 10617 10615 10614 10613 10611
10701 10701 10702 10702 10703 10703 10703 10704 10704 10705 10705 10706 10706 10705 10705 10705 10705 10704 10704 10704 10703 10703 10702 10702 10701 10700 10700 10699 10699 10698 10697 10697 10696 10696 10695 10694 10693 10691 10690 10689 10687 10686 10684 10683 10681 10680 10679 10677 10676 10675 10674 10672 10670 10669 10667 10666 10665 10664 10660 10655 10656 10656 10653 10649 10646 10646 10644 10642 10642 10637 10634 10633 10632 10633 10634 10633 10628 10624 10621 10616 10612 10609 10607 10606 10603 10602 10600 10598
10698 10698 10698 10699 10699 10700 10700 10700 10700 10701 10701 10702 10702 10701 10701 10701 10700 10700 10700 10699 10699 10698 10697 10696 10695 10695 10694 10694 10693 10692 10691 10691 10690 10689 10688 10687 10686 10685 10683 10682 10680 10678 10677 10675 10673 10672 10671 10669 10668 10666 10665 10663 10661 10660 10657 10656 10654 10654 10652 10647 10643 10644 10645 10639 10635 10635 10631 10631 10633 10627 10621 10621 10622 10624 10625 10622 10617 10612 10608 10603 10599 10596 10595 10593 10591 10589 10586 10584
10695 10695 10696 10696 10696 10696 10696 10696 10697 10697 10697 10697 10697 10697 10697 10696 10696 10695 10695 10694 10694 10693 10692 10691 10690 10689 10689 10688 10687 10686 10685 10685 10684 10683 10682 10680 10679 10678 10676 10674 10672 10671 10669 10667 10665 10664 10662 10660 10659 10657 10655 10653 10653 10651 10647 10646 10644 10643 10642 10639 10634 10632 10633 10631 10627 10624 10618 10619 10623 10616 10608 10611 10613 10613 10613 10610 10605 10600 10595 10592 10588 10585 10582 10580 10577 10575 10572 10569
10692 10693 10693 10693 10693 10693 10693 10693 10693 10693 10693 10693 10692 10692 10692 10691 10691 10690 10689 10689 10688 10687 10686 10685 10685 10684 10683 10681 10681 10680 10679 10678 10677 10675 10674 10673 10671 10670 10668 10666 10665 10663 10661 10659 10656 10655 10653 10651 10649 10648 10645 10644 10644 10641 10638 10636 10634 10632 10630 10629 10625 10622 10623 10622 10618 10611 10606 10609 10612 10603 10597 10602 10604 10602 10602 10597 10592 10589 10584 10581 10578 10574 10571 10567 10564 10560 10557 10555
10690 10690 10690 10690 10690 10690 10690 10690 10689 10689 10689 10688 10688 10687 10687 10686 10686 10685 10684 10683 10683 10681 10680 10680 10679 10678 10677 10675 10674 10673 10672 10671 10669 10668 10666 10665 10663 10661 10660 10658 10656 10654 10653 10651 10648 10645 10644 10642 10640 10638 10635 10634 10633 10631 10629 10626 10623 10620 10619 10618 10615 10612 10614 10614 10607 10598 10595 10599 10598 10590 10587 10592 10594 10591 10587 10583 10580 10578 10573 10570 10566 10562 10559 10555 10551 10547 10543 10540
10688 10688 10687 10687 10687 10687 10686 10686 10686 10685 10685 10684 10684 10683 10682 10682 10681 10680 10679 10678 10677 10676 10675 10674 10673 10672 10670 10669 10667 10666 10665 10664 10662 10660 10659 10657 10655 10654 10652 10650 10648 10646 10644 10642 10639 10637 10635 10633 10631 10629 10626 10625 10624 10621 10619 10617 10614 10610 10609 10609 10604 10601 10603 10604 10599 10590 10587 10587 10583 10578 10576 10581 10585 10581 10574 10569 10567 10565 10561 10557 10554 10550 10546 10542 10539 10535 10531 10527
10686 10685 10685 10685 10684 10684 10683 10683 10682 10682 10681 10680 10680 10679 10679 10678 10676 10676 10675 10674 10672 10671 10670 10669 10668 10666 10664 10663 10661 10660 10659 10657 10655 10653 10652 10650 10648 10646 10644 10643 10640 10638 10636 10633 10631 10629 10627 10624 10622 10621 10617 10615 10615 10612 10609 10607 10605 10602 10599 10598 10595 10591 10590 10591 10589 10583 10580 10576 10569 10564 10564 10569 10572 10568 10562 10557 10554 10552 10549 10545 10541 10537 10534 10530 10526 10523 10519 10515
10683 10683 10682 10682 10681 10681 10680 10680 10679 10678 10678 10677 10676 10675 10675 10674 10672 10671 10670 10669 10667 10666 10665 10664 10662 10661 10659 10657 10655 10654 10652 10651 10649 10647 10645 10643 10641 10639 10637 10635 10633 10630 10628 10625 10623 10621 10619 10616 10614 10613 10609 10606 10606 10603 10600 10597 10595 10593 10592 10589 10583 10579 10578 10579 10579 10574 10570 10566 10558 10553 10553 10557 10557 10554 10550 10545 10542 10540 10536 10532 10529 10525 10521 10518 10514 10510 10506 10502
10681 10680 10680 10679 10678 10678 10677 10677 10676 10675 10674 10673 10672 10671 10670 10669 10668 10667 10665 10664 10662 10661 10659 10658 10657 10655 10653 10651 10649 10648 10646 10644 10642 10640 10639 10636 10634 10632 10630 10628 10625 10623 10620 10617 10615 10613 10611 10609 10606 10604 10601 10598 10596 10594 10591 10588 10585 10582 10581 10582 10575 10568 10564 10565 10569 10566 10558 10554 10549 10544 10543 10545 10542 10538 10535 10532 10531 10528 10524 10520 10516 10513 10509 10504 10500 10496 10493 10490
10679 10678 10678 10677 10676 10675 10674 10673 10673 10672 10671 10670 10669 10667 10666 10665 10663 10662 10661 10659 10657 10656 10654 10652 10651 10649 10647 10645 10643 10641 10639 10637 10636 10634 10632 10629 10627 10625 10622 10620 10617 10615 10613 10609 10607 10605 10603 10600 10598 10595 10592 10590 10587 10584 10581 10579 10577 10571 10568 10570 10567 10562 10555 10552 10555 10554 10546 10541 10539 10535 10532 10531 10528 10524 10522 10519 10517 10514 10510 10507 10503 10499 10495 10491 10487 10483 10480 10477
10677 10676 10675 10675 10674 10673 10672 10671 10670 10669 10667 10666 10665 10664 10662 10661 10659 10657 10656 10654 10652 10651 10649 10647 10645 10644 10641 10639 10637 10635 10633 10631 10629 10627 10625 10622 10619 10617 10615 10612 10610 10607 10605 10602 10598 10596 10595 10592 10588 10584 10583 10581 10578 10575 10572 10568 10566 10562 10558 10556 10554 10551 10547 10545 10543 10538 10534 10531 10529 10527 10522 10517 10514 10512 10509 10505 10503 10500 10497 10493 10489 10485 10480 10477 10473 10470 10467 10463
10675 10674 10673 10673 10672 10671 10669 10668 10667 10666 10664 10663 10662 10660 10658 10657 10655 10653 10651 10649 10648 10646 10644 10642 10640 10638 10635 10633 10631 10629 10626 10624 10622 10620 10617 10615 10612 10609 10607 10605 10602 10599 10596 10594 10590 10587 10586 10583 10579 10575 10573 10571 10569 10566 10563 10559 10555 10552 10549 10545 10542 10538 10536 10537 10531 10523 10521 10518 10517 10518 10512 10506 10503 10499 10496 10492 10489 10486 10483 10480 10475 10471 10467 10463 10460 10457 10454 10451
10673 10673 10672 10670 10669 10668 10667 10666 10664 10663 10661 10659 10658 10656 10654 10652 10651 10648 10646 10644 10642 10640 10638 10636 10634 10631 10629 10626 10624 10622 10620 10617 10615 10613 10610 10608 10605 10602 10599 10596 10594 10591 10587 10585 10582 10579 10578 10574 10569 10567 10564 10561 10558 10556 10554 10550 10545 10542 10539 10535 10530 10526 10524 10524 10520 10512 10507 10504 10504 10504 10499 10495 10492 10488 10484 10480 10476 10473 10470 10466 10462 10458 10454 10450 10447 10444 10441 10438
10672 10670 10669 10668 10667 10666 10664 10663 10661 10659 10657 10656 10654 10652 10650 10648 10646 10644 10641 10639 10637 10635 10633 10631 10628 10625 10623 10620 10618 10616 10614 10611 10608 10606 10603 10600 10598 10595 10592 10588 10586 10583 10579 10576 10572 10569 10569 10566 10561 10557 10555 10551 10549 10547 10543 10538 10534 10531 10529 10525 10519 10515 10513 10511 10508 10502 10494 10492 10491 10488 10483 10482 10481 10476 10472 10468 10465 10461 10457 10454 10450 10445 10441 10437 10434 10431 10428 10425
10670 10668 10667 10665 10664 10662 10661 10659 10657 10656 10654 10652 10650 10647 10645 10643 10641 10639 10636 10634 10632 10630 10627 10625 10622 10619 10617 10615 10612 10610 10608 10605 10602 10599 10596 10593 10590 10587 10584 10580 10577 10574 10571 10568 10564 10560 10558 10557 10553 10548 10545 10541 10538 10536 10532 10527 10522 10519 10518 10514 10508 10503 10501 10499 10496 10490 10484 10481 10478 10474 10471 10470 10467 10462 10459 10457 10454 10449 10445 10441 10437 10432 10428 10424 10420 10417 10415 10412
10667 10665 10664 10662 10661 10659 10657 10655 10654 10652 10650 10648 10646 10643 10641 10639 10637 10634 10632 10629 10627 10624 10622 10619 10616 10613 10611 10609 10606 10603 10601 10598 10595 10592 10588 10585 10582 10579 10575 10572 10569 10566 10562 10559 10555 10551 10547 10546 10543 10539 10536 10532 10529 10526 10522 10517 10511 10507 10505 10503 10498 10492 10488 10486 10483 10477 10474 10470 10465 10461 10459 10457 10454 10450 10448 10447 10441 10435 10431 10427 10423 10418 10413 10409 10406 10404 10402 10399
10664 10663 10661 10659 10657 10655 10653 10652 10650 10648 10646 10643 10641 10639 10637 10634 10632 10630 10627 10624 10622 10619 10616 10613 10610 10608 10605 10602 10599 10597 10594 10591 10588 10584 10580 10577 10574 10570 10567 10563 10560 10557 10553 10549 10546 10543 10538 10534 10532 10528 10525 10522 10519 10515 10511 10508 10502 10497 10494 10490 10487 10482 10477 10474 10469 10464 10461 10458 10454 10449 10444 10442 10442 10442 10440 10435 10428 10421 10418 10413 10407 10402 10398 10395 10393 10391 10389 10385
10661 10660 10658 10656 10654 10652 10650 10648 10646 10643 10641 10639 10636 10634 10632 10629 10627 10624 10622 10619 10616 10613 10610 10607 10604 10601 10598 10596 10592 10589 10586 10582 10580 10576 10572 10569 10565 10562 10558 10554 10551 10547 10544 10540 10536 10533 10529 10525 10522 10518 10515 10511 10509 10505 10501 10498 10492 10487 10484 10480 10475 10471 10466 10463 10459 10453 10447 10445 10444 10438 10430 10426 10428 10433 10431 10424 10416 10410 10404 10397 10391 10387 10385 10383 10381 10378 10375 10372
10659 10657 10655 10653 10650 10648 10646 10644 10641 10639 10637 10634 10631 10629 10626 10624 10621 10619 10616 10614 10610 10606 10603 10600 10597 10594 10591 10588 10584 10581 10577 10573 10570 10567 10563 10560 10556 10553 10549 10545 10541 10537 10534 10530 10526 10523 10520 10516 10512 10508 10505 10501 10497 10494 10490 10487 10482 10477 10473 10469 10465 10460 10455 10451 10447 10443 10436 10432 10431 10425 10420 10415 10412 10418 10421 10415 10407 10399 10390 10384 10379 10375 10373 10371 10369 10365 10362 10358
10656 10653 10652 10649 10647 10644 10642 10640 10637 10634 10632 10629 10627 10624 10621 10618 10616 10613 10610 10607 10603 10599 10596 10593 10590 10586 10583 10579 10576 10572 10569 10565 10562 10559 10555 10551 10547 10544 10540 10536 10533 10528 10524 10521 10517 10514 10510 10506 10503 10498 10494 10491 10487 10483 10480 10476 10472 10467 10463 10459 10454 10448 10444 10440 10436 10432 10426 10421 10418 10412 10408 10404 10398 10401 10406 10403 10396 10388 10382 10375 10368 10364 10361 10358 10355 10352 10348 10344
10653 10651 10648 10646 10643 10641 10638 10636 10633 10630 10627 10625 10622 10619 10615 10612 10609 10606 10603 10600 10597 10593 10590 10586 10583 10579 10576 10572 10568 10565 10561 10558 10554 10551 10547 10543 10539 10536 10532 10528 10524 10520 10516 10513 10508 10505 10502 10497 10493 10489 10484 10481 10477 10473 10469 10466 10461 10458 10453 10449 10444 10438 10434 10430 10424 10421 10417 10411 10408 10402 10396 10390 10385 10387 10391 10388 10380 10375 10373 10368 10360 10353 10349 10345 10342 10339 10335 10331
10650 10647 10645 10642 10640 10637 10634 10632 10629 10626 10623 10620 10617 10613 10610 10606 10603 10600 10596 10593 10590 10587 10583 10580 10576 10573 10569 10565 10561 10558 10555 10551 10547 10543 10539 10536 10531 10528 10524 10520 10517 10512 10508 10504 10499 10495 10493 10489 10484 10480 10476 10472 10468 10464 10459 10455 10451 10448 10445 10441 10436 10430 10426 10420 10413 10411 10407 10400 10397 10393 10384 10376 10371 10374 10376 10372 10366 10362 10361 10358 10351 10344 10337 10332 10329 10325 10321 10317
10647 10644 10641 10639 10636 10633 10631 10628 10625 10622 10618 10615 10612 10608 10604 10600 10597 10594 10590 10587 10584 10580 10577 10574 10570 10566 10562 10559 10555 10552 10548 10544 10541 10537 10533 10529 10525 10520 10516 10513 10509 10506 10503 10499 10494 10487 10484 10481 10476 10471 10468 10463 10459 10455 10451 10447 10442 10438 10435 10432 10428 10422 10417 10412 10405 10402 10398 10391 10386 10382 10374 10366 10361 10358 10356 10354 10352 10349 10347 10344 10339 10333 10327 10320 10315 10310 10306 10302
10644 10641 10638 10635 10633 10630 10627 10624 10620 10617 10613 10610 10606 10603 10599 10595 10591 10588 10584 10581 10578 10575 10571 10568 10564 10560 10557 10553 10550 10546 10543 10539 10535 10531 10527 10523 10519 10514 10510 10505 10500 10496 10492 10490 10487 10481 10476 10472 10467 10463 10459 10454 10450 10445 10441 10437 10432 10428 10424 10421 10418 10413 10408 10402 10395 10391 10387 10381 10375 10369 10364 10359 10354 10347 10340 10336 10334 10332 10330 10329 10325 10320 10315 10308 10302 10297 10293 10288
10640 10638 10635 10632 10629 10626 10623 10619 10616 10612 10608 10605 10601 10598 10595 10591 10587 10583 10579 10576 10573 10570 10566 10563 10559 10555 10552 10548 10545 10541 10538 10534 10530 10526 10522 10518 10513 10509 10505 10500 10495 10490 10484 10480 10476 10473 10468 10464 10459 10454 10449 10445 10441 10437 10432 10426 10421 10417 10413 10409 10406 10403 10399 10393 10386 10381 10377 10370 10363 10356 10351 10347 10343 10337 10329 10322 10318 10314 10312 10310 10307 10304 10299 10294 10289 10284 10279 10275
10637 10634 10632 10629 10625 10622 10619 10615 10611 10607 10604 10600 10597 10593 10590 10587 10583 10579 10575 10572 10569 10565 10562 10559 10555 10551 10548 10544 10540 10536 10532 10529 10525 10521 10517 10512 10507 10503 10499 10494 10490 10485 10480 10474 10469 10464 10460 10456 10451 10446 10441 10436 10432 10427 10423 10419 10413 10408 10403 10398 10394 10391 10388 10382 10376 10371 10367 10363 10356 10347 10341 10335 10331 10326 10318 10311 10306 10300 10296 10293 10289 10286 10282 10278 10274 10269 10264 10260
10634 10631 10628 10625 10621 10618 10614 10611 10607 10603 10600 10596 10592 10589 10585 10582 10579 10575 10572 10568 10565 10562 10558 10555 10551 10547 10544 10540 10536 10533 10528 10524 10519 10515 10511 10507 10502 10496 10491 10487 10482 10477 10473 10468 10463 10458 10453 10448 10443 10438 10433 10428 10423 10418 10414 10409 10404 10400 10394 10389 10384 10380 10376 10370 10363 10358 10355 10353 10347 10340 10334 10327 10320 10315 10308 10301 10296 10290 10284 10279 10274 10270 10266 10261 10257 10253 10248 10243
10630 10627 10624 10621 10617 10613 10610 10607 10603 10599 10596 10592 10589 10585 10582 10578 10575 10572 10568 10565 10562 10558 10555 10552 10548 10545 10541 10537 10533 10529 10525 10521 10516 10510 10506 10501 10497 10492 10486 10481 10475 10470 10465 10461 10456 10451 10446 10442 10435 10431 10426 10421 10416 10411 10406 10400 10395 10391 10386 10381 10375 10369 10365 10360 10354 10348 10344 10340 10334 10327 10323 10318 10312 10305 10298 10291 10286 10280 10274 10268 10262 10257 10252 10247 10242 10239 10234 10228
10627 10623 10620 10616 10613 10610 10606 10603 10599 10596 10592 10589 10585 10582 10579 10575 10572 10568 10565 10562 10559 10555 10552 10549 10545 10542 10538 10534 10530 10526 10521 10517 10512 10508 10502 10497 10492 10487 10481 10476 10470 10465 10459 10454 10449 10443 10439 10434 10428 10424 10419 10413 10408 10403 10397 10392 10387 10383 10378 10373 10368 10361 10355 10350 10347 10343 10338 10332 10325 10315 10309 10307 10302 10296 10290 10282 10275 10270 10264 10258 10252 10246 10240 10235 10229 10224 10221 10215
10623 10620 10617 10613 10610 10606 10603 10599 10596 10593 10589 10586 10582 10579 10576 10572 10569 10566 10563 10559 10556 10553 10549 10546 10542 10539 10535 10531 10527 10523 10518 10513 10508 10503 10498 10492 10487 10481 10476 10470 10464 10459 10453 10448 10443 10437 10432 10427 10421 10417 10412 10407 10402 10397 10391 10386 10380 10375 10371 10366 10360 10354 10347 10340 10336 10333 10328 10324 10319 10308 10297 10293 10290 10283 10278 10271 10264 10259 10255 10249 10242 10235 10228 10224 10218 10212 10207 10202
10620 10617 10613 10610 10607 10603 10600 10596 10593 10590 10587 10583 10580 10576 10573 10570 10567 10563 10560 10557 10553 10550 10547 10543 10540 10536 10532 10528 10523 10519 10514 10509 10504 10498 10493 10487 10481 10476 10470 10465 10459 10454 10448 10443 10438 10433 10428 10422 10416 10411 10405 10400 10395 10390 10385 10380 10373 10367 10361 10355 10350 10344 10338 10332 10325 10319 10315 10311 10308 10301 10290 10283 10278 10271 10264 10257 10251 10246 10242 10236 10230 10223 10217 10212 10207 10201 10195 10189
10617 10614 10610 10607 10604 10601 10597 10594 10591 10588 10584 10581 10577 10574 10571 10567 10564 10561 10558 10555 10552 10548 10545 10541 10537 10533 10529 10524 10520 10515 10510 10504 10499 10493 10488 10482 10476 10470 10465 10459 10454 10449 10443 10438 10432 10427 10421 10416 10410 10405 10399 10393 10388 10383 10377 10372 10368 10362 10355 10349 10343 10337 10330 10325 10319 10311 10305 10301 10297 10292 10285 10277 10269 10262 10253 10247 10242 10236 10230 10224 10217 10211 10206 10200 10195 10190 10183 10177
10614 10611 10607 10604 10601 10598 10595 10592 10588 10585 10582 10578 10575 10572 10568 10565 10562 10559 10556 10553 10550 10546 10543 10539 10535 10531 10526 10521 10516 10511 10505 10500 10495 10489 10484 10478 10472 10467 10461 10455 10449 10443 10437 10432 10426 10421 10416 10410 10404 10398 10393 10387 10381 10375 10370 10364 10359 10355 10351 10345 10340 10334 10327 10320 10313 10306 10298 10293 10287 10280 10276 10270 10261 10252 10244 10238 10233 10227 10220 10214 10208 10201 10195 10189 10184 10179 10173 10166
10611 10608 10605 10602 10599 10596 10593 10590 10586 10583 10580 10576 10573 10570 10567 10564 10561 10558 10555 10551 10548 10544 10540 10537 10532 10528 10523 10518 10513 10508 10503 10498 10492 10487 10481 10476 10469 10464 10458 10452 10446 10440 10434 10428 10423 10417 10411 10406 10400 10394 10389 10384 10378 10373 10367 10361 10354 10348 10343 10338 10334 10329 10323 10315 10307 10301 10293 10287 10280 10271 10265 10262 10254 10245 10237 10230 10223 10217 10210 10204 10198 10191 10185 10179 10174 10168 10163 10156
10609 10606 10604 10601 10598 10594 10591 10588 10585 10581 10578 10575 10572 10569 10566 10563 10560 10557 10553 10550 10546 10542 10538 10534 10530 10525 10520 10515 10510 10506 10501 10496 10491 10485 10479 10473 10467 10461 10455 10449 10443 10437 10431 10425 10420 10414 10408 10403 10398 10393 10387 10382 10376 10370 10365 10359 10353 10347 10340 10335 10330 10325 10319 10310 10302 10296 10289 10282 10277 10267 10258 10254 10248 10240 10231 10223 10216 10208 10201 10193 10186 10180 10174 10168 10162 10156 10151 10146
10608 10605 10602 10599 10596 10593 10590 10586 10583 10580 10577 10574 10571 10568 10565 10562 10558 10555 10552 10548 10544 10540 10536 10532 10527 10522 10518 10513 10509 10504 10499 10494 10488 10483 10477 10471 10465 10459 10453 10447 10441 10435 10429 10423 10418 10412 10406 10401 10395 10390 10385 10379 10373 10368 10362 10357 10351 10345 10338 10332 10327 10321 10315 10306 10296 10289 10281 10273 10267 10260 10249 10240 10235 10230 10223 10217 10210 10203 10195 10186 10178 10172 10166 10159 10153 10146 10140 10135
10606 10603 10601 10598 10595 10592 10588 10585 10582 10579 10576 10573 10570 10567 10564 10560 10557 10554 10550 10546 10542 10538 10534 10529 10525 10521 10516 10512 10508 10503 10498 10492 10486 10481 10475 10469 10463 10456 10450 10444 10438 10432 10426 10421 10414 10408 10403 10397 10391 10385 10380 10375 10370 10364 10358 10352 10345 10338 10332 10325 10320 10315 10308 10299 10289 10281 10274 10264 10255 10249 10241 10231 10222 10216 10210 10204 10199 10194 10188 10181 10174 10166 10159 10152 10145 10138 10132 10127
10605 10602 10599 10597 10594 10591 10588 10585 10582 10578 10575 10572 10569 10565 10562 10559 10556 10552 10548 10544 10540 10536 10532 10528 10524 10519 10515 10511 10506 10501 10496 10491 10485 10479 10473 10467 10461 10454 10448 10441 10435 10429 10423 10417 10411 10405 10399 10393 10386 10381 10375 10369 10363 10357 10351 10344 10338 10330 10323 10316 10310 10305 10299 10291 10281 10272 10266 10258 10248 10240 10233 10225 10215 10207 10199 10191 10185 10178 10172 10167 10162 10156 10149 10142 10135 10128 10122 10116
10604 10601 10598 10596 10593 10590 10587 10584 10581 10577 10574 10571 10567 10564 10561 10557 10554 10550 10546 10542 10538 10534 10530 10527 10523 10519 10514 10510 10505 10500 10495 10489 10483 10477 10471 10464 10458 10452 10445 10439 10433 10426 10420 10414 10408 10402 10396 10390 10383 10377 10371 10364 10358 10352 10344 10337 10331 10324 10316 10309 10301 10295 10291 10285 10276 10266 10258 10252 10245 10236 10227 10219 10210 10202 10194 10186 10178 10170 10162 10157 10152 10145 10138 10132 10125 10119 10112 10105
10603 10601 10598 10595 10592 10589 10586 10583 10580 10577 10573 10570 10566 10562 10559 10556 10552 10548 10544 10540 10537 10533 10530 10526 10522 10518 10514 10509 10504 10499 10493 10487 10481 10475 10469 10462 10456 10450 10443 10437 10431 10425 10419 10412 10406 10400 10393 10387 10380 10373 10366 10360 10353 10347 10340 10333 10326 10319 10312 10303 10295 10288 10284 10279 10271 10262 10253 10245 10240 10233 10225 10216 10206 10198 10190 10183 10175 10167 10158 10152 10145 10138 10131 10123 10116 10110 10104 10097
10603 10600 10597 10594 10591 10588 10585 10582 10579 10576 10572 10568 10565 10561 10558 10554 10550 10547 10543 10539 10536 10532 10529 10525 10521 10517 10512 10508 10503 10497 10491 10485 10479 10473 10467 10461 10454 10448 10442 10436 10430 10423 10417 10411 10404 10398 10391 10385 10378 10372 10364 10357 10349 10342 10337 10330 10323 10315 10307 10299 10291 10284 10279 10273 10266 10258 10250 10241 10235 10229 10222 10214 10204 10195 10186 10179 10171 10162 10152 10145 10138 10130 10123 10116 10109 10102 10096 10089
10601 10599 10596 10593 10590 10587 10584 10581 10577 10574 10570 10567 10564 10560 10557 10553 10549 10545 10542 10538 10535 10532 10528 10524 10520 10516 10511 10506 10501 10495 10489 10483 10477 10471 10465 10459 10453 10447 10441 10435 10429 10422 10416 10409 10403 10396 10389 10383 10376 10370 10363 10357 10350 10342 10335 10328 10320 10313 10304 10296 10289 10280 10272 10267 10261 10255 10247 10239 10230 10222 10217 10210 10202 10193 10182 10174 10166 10157 10148 10140 10132 10124 10117 10110 10102 10095 10088 10081
10600 10598 10595 10592 10589 10586 10583 10580 10576 10573 10569 10566 10563 10559 10555 10552 10548 10545 10541 10538 10535 10531 10527 10523 10519 10514 10509 10504 10499 10493 10488 10482 10476 10470 10464 10458 10452 10446 10440 10434 10427 10421 10414 10408 10401 10394 10388 10381 10373 10366 10360 10354 10349 10342 10334 10327 10318 10310 10303 10295 10287 10276 10265 10259 10255 10249 10242 10236 10228 10218 10211 10204 10196 10189 10179 10169 10162 10153 10144 10136 10128 10120 10111 10104 10096 10089 10081 10074
10599 10597 10594 10591 10588 10585 10582 10578 10575 10571 10568 10565 10562 10558 10554 10551 10547 10544 10541 10537 10534 10530 10526 10522 10518 10513 10508 10503 10498 10492 10487 10481 10475 10470 10464 10458 10452 10445 10439 10433 10426 10420 10413 10407 10400 10393 10386 10380 10373 10366 10358 10351 10344 10336 10329 10322 10315 10308 10301 10292 10283 10273 10262 10253 10249 10243 10234 10227 10221 10213 10205 10198 10190 10183 10174 10164 10156 10149 10139 10130 10123 10115 10106 10098 10090 10083 10075 10067